Location: Bjelajci
(45.0103°N, 16.1758°E)
Time: 03:23:33
(UTC+00:00)

CZ-4B R/B - Pass Details

Date: 14 July 2020
Orbit: 702 x 803 km, 98.9° (Epoch: 11 August)

Event Time Altitude Azimuth Distance (km) Brightness Sun altitude
Rises 00:39:30 0° 18° (NNE) 3,246 8.4 -19.7°
Reaches altitude 10° 00:41:54 10° 23° (NNE) 2,299 7.2 -19.5°
Maximum altitude 00:46:51 54° 101° (E) 905 3.9 -19.1°
Enters shadow 00:49:15 28° 165° (SSE) 1,358 4.4 -19.0°
